WMT1395 LIPY-LIMC

Flight info

Callsign WMT1395
Flight time 0h 51m
Altitude 36000
Route BIDMA6F/04 BIDMA M730 ASDOR DCT SUKOM DCT VABOK DCT ADOSA DCT IDREK DCT ELTAR DCT NOBMI DCT NEVNI DCT OSKOR DCT LEGLO DCT PEXUG
Aircraft A320/M-SDE3FGHIRWY/LB1

Departure

Time 2026-04-16 20:12
Airport Marche Airport (LIPY)

Arrival

Time 2026-04-16 21:04
Airport Milan Malpensa International Airport (LIMC)
Time Latitude Longitude Altitude Speed Heading
2026-04-16 19:46 43.60826 13.35552 48 ft 0 kts 134°
2026-04-16 20:02 43.60836 13.35538 51 ft 2 kts 134°
2026-04-16 20:02 43.60847 13.35522 54 ft 2 kts 159°
2026-04-16 20:02 43.60862 13.35514 48 ft 2 kts 160°
2026-04-16 20:02 43.60877 13.35517 53 ft 2 kts 230°
2026-04-16 20:03 43.60878 13.35520 54 ft 0 kts 228°
2026-04-16 20:08 43.60876 13.35516 53 ft 3 kts 228°
2026-04-16 20:08 43.60838 13.35463 53 ft 12 kts 223°
2026-04-16 20:08 43.60777 13.35383 56 ft 9 kts 224°
2026-04-16 20:08 43.60734 13.35323 56 ft 4 kts 226°
2026-04-16 20:09 43.60716 13.35297 56 ft 5 kts 227°
2026-04-16 20:09 43.60706 13.35244 56 ft 7 kts 284°
2026-04-16 20:09 43.60736 13.35192 57 ft 0 kts 317°
2026-04-16 20:10 43.60737 13.35191 56 ft 1 kts 317°
2026-04-16 20:10 43.60748 13.35176 55 ft 4 kts 315°
2026-04-16 20:11 43.60773 13.35137 53 ft 7 kts 311°
2026-04-16 20:11 43.60815 13.35116 55 ft 7 kts 21°
2026-04-16 20:11 43.60839 13.35141 53 ft 0 kts 42°
2026-04-16 20:11 43.60852 13.35158 52 ft 19 kts 44°
2026-04-16 20:12 43.61133 13.35545 57 ft 94 kts 44°
2026-04-16 20:12 43.61741 13.36375 53 ft 149 kts 45°
2026-04-16 20:12 43.62524 13.37447 488 ft 158 kts 45°
2026-04-16 20:12 43.63316 13.38533 1087 ft 163 kts 43°
2026-04-16 20:13 43.64148 13.39659 1568 ft 177 kts 43°
2026-04-16 20:13 43.65082 13.40928 1878 ft 201 kts 43°
2026-04-16 20:13 43.66105 13.42326 2537 ft 210 kts 43°
2026-04-16 20:13 43.67358 13.43343 3323 ft 215 kts
2026-04-16 20:14 43.68862 13.43214 4117 ft 220 kts 351°
2026-04-16 20:14 43.70380 13.42790 4782 ft 227 kts 348°
2026-04-16 20:14 43.71924 13.42312 4963 ft 227 kts 348°
2026-04-16 20:14 43.73476 13.41828 5523 ft 228 kts 348°
2026-04-16 20:15 43.75029 13.41358 6454 ft 229 kts 349°
2026-04-16 20:15 43.76576 13.40814 7285 ft 232 kts 337°
2026-04-16 20:15 43.77858 13.39451 8078 ft 238 kts 307°
2026-04-16 20:15 43.78521 13.37324 8767 ft 253 kts 279°
2026-04-16 20:16 43.78262 13.34867 9359 ft 269 kts 246°
2026-04-16 20:16 43.77420 13.32555 9952 ft 276 kts 244°
2026-04-16 20:16 43.76540 13.30196 10099 ft 276 kts 244°
2026-04-16 20:16 43.75532 13.27898 10139 ft 293 kts 237°
2026-04-16 20:17 43.74343 13.25417 10267 ft 323 kts 237°
2026-04-16 20:17 43.73087 13.22702 10501 ft 346 kts 243°
2026-04-16 20:17 43.72348 13.19511 10999 ft 354 kts 264°
2026-04-16 20:17 43.72492 13.16121 11704 ft 356 kts 285°
2026-04-16 20:18 43.73534 13.13037 12441 ft 357 kts 307°
2026-04-16 20:18 43.75322 13.10654 13173 ft 360 kts 322°
2026-04-16 20:18 43.77319 13.08548 13919 ft 363 kts 323°
2026-04-16 20:18 43.79344 13.06433 14580 ft 366 kts 323°
2026-04-16 20:19 43.81380 13.04303 15228 ft 369 kts 323°
2026-04-16 20:19 43.83433 13.02147 15867 ft 371 kts 323°
2026-04-16 20:19 43.85494 12.99969 16510 ft 374 kts 323°
2026-04-16 20:19 43.87571 12.97766 17169 ft 377 kts 323°
2026-04-16 20:20 43.89665 12.95542 17828 ft 381 kts 323°
2026-04-16 20:20 43.91774 12.93300 18487 ft 384 kts 323°
2026-04-16 20:20 43.93902 12.91035 19080 ft 387 kts 323°
2026-04-16 20:20 43.96048 12.88752 19683 ft 391 kts 324°
2026-04-16 20:21 43.98217 12.86445 20294 ft 394 kts 324°
2026-04-16 20:21 44.00397 12.84127 20890 ft 397 kts 324°
2026-04-16 20:21 44.02597 12.81786 21437 ft 400 kts 324°
2026-04-16 20:21 44.04812 12.79423 21971 ft 403 kts 324°
2026-04-16 20:22 44.07041 12.77040 22475 ft 406 kts 324°
2026-04-16 20:22 44.09287 12.74635 22996 ft 409 kts 324°
2026-04-16 20:22 44.11516 12.72248 23493 ft 411 kts 324°
2026-04-16 20:22 44.13820 12.69780 23945 ft 414 kts 324°
2026-04-16 20:23 44.16078 12.67354 24344 ft 416 kts 324°
2026-04-16 20:23 44.18377 12.64883 24744 ft 419 kts 324°
2026-04-16 20:23 44.20686 12.62400 25140 ft 421 kts 323°
2026-04-16 20:23 44.23010 12.59899 25543 ft 423 kts 323°
2026-04-16 20:24 44.25344 12.57385 25931 ft 425 kts 323°
2026-04-16 20:24 44.27691 12.54858 26323 ft 427 kts 323°
2026-04-16 20:24 44.30048 12.52312 26689 ft 429 kts 323°
2026-04-16 20:24 44.32415 12.49755 27086 ft 431 kts 323°
2026-04-16 20:25 44.34789 12.47185 27485 ft 433 kts 323°
2026-04-16 20:25 44.37175 12.44601 27862 ft 435 kts 323°
2026-04-16 20:25 44.39568 12.42009 28228 ft 436 kts 323°
2026-04-16 20:25 44.41974 12.39401 28612 ft 438 kts 323°
2026-04-16 20:26 44.44382 12.36786 28971 ft 440 kts 323°
2026-04-16 20:26 44.46804 12.34152 29313 ft 442 kts 323°
2026-04-16 20:26 44.49225 12.31513 29758 ft 441 kts 323°
2026-04-16 20:26 44.51642 12.28872 30260 ft 439 kts 323°
2026-04-16 20:27 44.54047 12.26244 30700 ft 438 kts 323°
2026-04-16 20:27 44.56446 12.23623 31131 ft 436 kts 323°
2026-04-16 20:27 44.58836 12.21009 31551 ft 435 kts 323°
2026-04-16 20:27 44.61220 12.18399 31985 ft 434 kts 323°
2026-04-16 20:28 44.63600 12.15791 32426 ft 433 kts 323°
2026-04-16 20:28 44.65967 12.13195 32901 ft 431 kts 324°
2026-04-16 20:28 44.68320 12.10608 33375 ft 429 kts 324°
2026-04-16 20:28 44.70665 12.08030 33839 ft 427 kts 324°
2026-04-16 20:29 44.72974 12.05491 34272 ft 426 kts 324°
2026-04-16 20:29 44.75305 12.02928 34675 ft 425 kts 324°
2026-04-16 20:29 44.77630 12.00370 35084 ft 423 kts 323°
2026-04-16 20:29 44.79940 11.97820 35464 ft 422 kts 323°
2026-04-16 20:30 44.82246 11.95267 35820 ft 421 kts 323°
2026-04-16 20:30 44.84552 11.92713 36104 ft 422 kts 323°
2026-04-16 20:30 44.89189 11.87580 36162 ft 425 kts 323°
2026-04-16 20:31 44.93049 11.83300 36158 ft 424 kts 323°
2026-04-16 20:31 44.98466 11.77265 36167 ft 424 kts 323°
2026-04-16 20:32 45.02341 11.72943 36160 ft 423 kts 323°
2026-04-16 20:32 45.06958 11.67783 36184 ft 423 kts 323°
2026-04-16 20:33 45.11544 11.62647 36181 ft 424 kts 323°
2026-04-16 20:33 45.16164 11.57467 36173 ft 424 kts 323°
2026-04-16 20:34 45.20783 11.52274 36176 ft 423 kts 323°
2026-04-16 20:34 45.25399 11.47085 36181 ft 423 kts 323°
2026-04-16 20:35 45.30010 11.41885 36175 ft 423 kts 323°
2026-04-16 20:35 45.34615 11.36675 36177 ft 423 kts 323°
2026-04-16 20:36 45.39214 11.31457 36174 ft 423 kts 323°
2026-04-16 20:36 45.43814 11.26233 36183 ft 422 kts 323°
2026-04-16 20:37 45.48398 11.21013 36181 ft 422 kts 323°
2026-04-16 20:37 45.52977 11.15787 36178 ft 421 kts 323°
2026-04-16 20:38 45.57546 11.10559 36174 ft 421 kts 323°
2026-04-16 20:38 45.61710 11.04763 36171 ft 425 kts 307°
2026-04-16 20:39 45.64148 10.96964 36171 ft 435 kts 286°
2026-04-16 20:39 45.64572 10.88333 36162 ft 441 kts 275°
2026-04-16 20:40 45.64635 10.79554 36156 ft 442 kts 275°
2026-04-16 20:40 45.64691 10.70761 36159 ft 443 kts 275°
2026-04-16 20:41 45.64750 10.61965 35913 ft 443 kts 275°
2026-04-16 20:41 45.64776 10.57572 35647 ft 442 kts 275°
2026-04-16 20:41 45.64798 10.53172 35400 ft 443 kts 275°
2026-04-16 20:42 45.64817 10.48769 35154 ft 443 kts 275°
2026-04-16 20:42 45.64833 10.44361 34911 ft 444 kts 275°
2026-04-16 20:42 45.64848 10.39950 34235 ft 446 kts 275°
2026-04-16 20:42 45.64865 10.35489 33243 ft 450 kts 275°
2026-04-16 20:43 45.64879 10.31014 32312 ft 451 kts 274°
2026-04-16 20:43 45.64891 10.26523 31314 ft 453 kts 274°
2026-04-16 20:43 45.64901 10.22010 30356 ft 454 kts 273°
2026-04-16 20:43 45.64910 10.17484 29140 ft 457 kts 273°
2026-04-16 20:44 45.64918 10.12946 27979 ft 458 kts 273°
2026-04-16 20:44 45.64925 10.08396 26981 ft 456 kts 273°
2026-04-16 20:44 45.64936 10.03913 26326 ft 447 kts 272°
2026-04-16 20:44 45.64952 9.99493 25549 ft 442 kts 272°
2026-04-16 20:45 45.64972 9.95123 24785 ft 438 kts 272°
2026-04-16 20:45 45.64993 9.90790 24031 ft 434 kts 272°
2026-04-16 20:45 45.65011 9.86495 23208 ft 430 kts 272°
2026-04-16 20:45 45.65022 9.82247 22464 ft 424 kts 272°
2026-04-16 20:46 45.65025 9.78085 21737 ft 419 kts 271°
2026-04-16 20:46 45.65043 9.73925 21017 ft 413 kts 272°
2026-04-16 20:46 45.65108 9.69843 20324 ft 409 kts 273°
2026-04-16 20:46 45.65202 9.65802 19657 ft 405 kts 274°
2026-04-16 20:47 45.65306 9.61789 19015 ft 402 kts 273°
2026-04-16 20:47 45.65373 9.57803 18433 ft 400 kts 272°
2026-04-16 20:47 45.65394 9.53898 18243 ft 385 kts 271°
2026-04-16 20:47 45.65388 9.50144 18106 ft 370 kts 271°
2026-04-16 20:48 45.65372 9.46538 17970 ft 356 kts 271°
2026-04-16 20:48 45.65353 9.43073 17837 ft 342 kts 271°
2026-04-16 20:48 45.65337 9.39736 17702 ft 330 kts 271°
2026-04-16 20:48 45.65325 9.36503 17481 ft 322 kts 271°
2026-04-16 20:49 45.65319 9.33340 17208 ft 316 kts 271°
2026-04-16 20:49 45.65331 9.30257 16847 ft 313 kts 272°
2026-04-16 20:49 45.65352 9.27159 16398 ft 309 kts 272°
2026-04-16 20:49 45.65378 9.24093 15708 ft 307 kts 272°
2026-04-16 20:50 45.65399 9.21051 15044 ft 305 kts 271°
2026-04-16 20:50 45.65412 9.18026 14397 ft 303 kts 271°
2026-04-16 20:50 45.65424 9.15022 13744 ft 302 kts 271°
2026-04-16 20:50 45.65436 9.12036 13049 ft 299 kts 271°
2026-04-16 20:51 45.65449 9.09071 12379 ft 297 kts 271°
2026-04-16 20:51 45.65461 9.06137 11733 ft 294 kts 271°
2026-04-16 20:51 45.65471 9.03224 11100 ft 292 kts 270°
2026-04-16 20:51 45.65459 9.00336 10458 ft 290 kts 266°
2026-04-16 20:52 45.65094 8.97514 9829 ft 289 kts 252°
2026-04-16 20:52 45.64292 8.94894 9161 ft 287 kts 243°
2026-04-16 20:52 45.63408 8.92417 8882 ft 272 kts 242°
2026-04-16 20:52 45.62282 8.90326 8464 ft 263 kts 220°
2026-04-16 20:53 45.60732 8.88997 7957 ft 260 kts 199°
2026-04-16 20:53 45.58972 8.88562 7442 ft 256 kts 177°
2026-04-16 20:53 45.57220 8.88928 6917 ft 254 kts 168°
2026-04-16 20:53 45.55486 8.89407 6403 ft 253 kts 168°
2026-04-16 20:54 45.53766 8.89877 5872 ft 251 kts 168°
2026-04-16 20:54 45.52055 8.90343 5333 ft 250 kts 168°
2026-04-16 20:54 45.50343 8.90805 4898 ft 251 kts 169°
2026-04-16 20:54 45.48635 8.91269 4595 ft 249 kts 168°
2026-04-16 20:55 45.46938 8.91730 4295 ft 248 kts 169°
2026-04-16 20:55 45.45255 8.92183 4055 ft 244 kts 169°
2026-04-16 20:55 45.43580 8.92634 4009 ft 245 kts 169°
2026-04-16 20:55 45.41953 8.93073 4011 ft 238 kts 168°
2026-04-16 20:56 45.40334 8.93513 4011 ft 237 kts 168°
2026-04-16 20:56 45.38715 8.93953 4013 ft 237 kts 168°
2026-04-16 20:56 45.37081 8.94293 4008 ft 229 kts 179°
2026-04-16 20:56 45.35598 8.93838 4010 ft 218 kts 204°
2026-04-16 20:57 45.34397 8.92540 4009 ft 219 kts 232°
2026-04-16 20:57 45.33713 8.90638 4011 ft 217 kts 258°
2026-04-16 20:57 45.33670 8.88514 4011 ft 216 kts 283°
2026-04-16 20:57 45.34246 8.86562 4014 ft 215 kts 302°
2026-04-16 20:58 45.35011 8.84726 4015 ft 216 kts 302°
2026-04-16 20:58 45.35769 8.82889 4014 ft 216 kts 302°
2026-04-16 20:58 45.36711 8.81254 4011 ft 214 kts 323°
2026-04-16 20:58 45.38004 8.80257 4013 ft 212 kts 346°
2026-04-16 20:59 45.39445 8.79829 4013 ft 211 kts 351°
2026-04-16 20:59 45.40887 8.79437 4012 ft 211 kts 351°
2026-04-16 20:59 45.42284 8.79054 4007 ft 199 kts 351°
2026-04-16 20:59 45.43634 8.78685 4008 ft 197 kts 351°
2026-04-16 21:00 45.44979 8.78316 3898 ft 197 kts 349°
2026-04-16 21:00 45.46320 8.77948 3680 ft 196 kts 349°
2026-04-16 21:00 45.47657 8.77581 3435 ft 195 kts 349°
2026-04-16 21:00 45.48990 8.77215 3178 ft 195 kts 349°
2026-04-16 21:01 45.50318 8.76850 2955 ft 192 kts 349°
2026-04-16 21:01 45.51613 8.76494 2690 ft 185 kts 349°
2026-04-16 21:01 45.52847 8.76155 2428 ft 177 kts 349°
2026-04-16 21:01 45.54038 8.75827 2197 ft 173 kts 349°
2026-04-16 21:02 45.55203 8.75506 1993 ft 162 kts 349°
2026-04-16 21:02 45.56269 8.75212 1771 ft 151 kts 350°
2026-04-16 21:02 45.57279 8.74934 1605 ft 145 kts 349°
2026-04-16 21:03 45.59215 8.74401 1223 ft 139 kts 350°
2026-04-16 21:03 45.60158 8.74141 1038 ft 137 kts 350°
2026-04-16 21:03 45.61087 8.73884 841 ft 136 kts 350°
2026-04-16 21:03 45.62003 8.73630 739 ft 126 kts 349°
2026-04-16 21:04 45.62706 8.73440 739 ft 78 kts 349°
2026-04-16 21:04 45.63090 8.73303 735 ft 43 kts 330°
2026-04-16 21:04 45.63286 8.73016 736 ft 32 kts 304°
2026-04-16 21:04 45.63372 8.72833 736 ft 0 kts 303°
2026-04-16 21:05 45.63373 8.72832 736 ft 1 kts 303°
2026-04-16 21:05 45.63387 8.72799 736 ft 7 kts 296°
2026-04-16 21:06 45.63408 8.72706 736 ft 13 kts 281°
2026-04-16 21:06 45.63395 8.72555 736 ft 18 kts 260°
2026-04-16 21:06 45.63369 8.72354 737 ft 23 kts 259°
2026-04-16 21:06 45.63339 8.72120 739 ft 26 kts 258°
2026-04-16 21:07 45.63303 8.71859 735 ft 10 kts 258°
2026-04-16 21:07 45.63299 8.71832 735 ft 5 kts 259°
2026-04-16 21:07 45.63287 8.71749 735 ft 12 kts 258°
2026-04-16 21:07 45.63230 8.71669 736 ft 15 kts 180°
2026-04-16 21:08 45.63108 8.71703 736 ft 21 kts 169°
2026-04-16 21:08 45.62948 8.71747 736 ft 26 kts 169°
2026-04-16 21:08 45.62752 8.71800 736 ft 31 kts 169°
2026-04-16 21:08 45.62640 8.71761 735 ft 14 kts 248°
2026-04-16 21:09 45.62627 8.71643 736 ft 9 kts 261°
2026-04-16 21:09 45.62619 8.71590 736 ft 3 kts 278°
2026-04-16 21:09 45.62640 8.71574 736 ft 5 kts 343°
2026-04-16 21:09 45.62681 8.71562 735 ft 8 kts 349°
2026-04-16 21:10 45.62701 8.71557 736 ft 0 kts 350°